Tracking 25405 objects as of 26-Jan-2022
HD Live streaming from Space Station
objects crossing your sky now

STARLINK-1818

Track STARLINK-1818 now!
10-day predictions
STARLINK-1818 is classified as:


NORAD ID: 46716
Int'l Code: 2020-073AY
Perigee: 552.7 km
Apogee: 556.0 km
Inclination: 53.1 °
Period: 95.6 minutes
Semi major axis: 6925 km
RCS: Unknown
Launch date: October 18, 2020
Source: United States (US)
Launch site: AIR FORCE EASTERN TEST RANGE (AFETR)
aabbcc
Your satellite tracking list
Your tracking list is empty




NASA's NSSDC Master Catalog

Two Line Element Set (TLE):
1 46716U 20073AY  22025.85738568 -.00001070  00000-0 -52910-4 0  9998
2 46716  53.0549 167.5974 0002369  74.7611 285.3640 15.06393216 70255
Source of the keplerian elements: AFSPC